Time[GMT],current_u[cm/s](10m),current_v[cm/s](10m),current_u[cm/s](14m),current_v[cm/s](14m),current_u[cm/s](18m),current_v[cm/s](18m),current_u[cm/s](22m),current_v[cm/s](22m),current_u[cm/s](26m),current_v[cm/s](26m),current_u[cm/s](30m),current_v[cm/s](30m),current_u[cm/s](34m),current_v[cm/s](34m),current_u[cm/s](38m),current_v[cm/s](38m),current_u[cm/s](42m),current_v[cm/s](42m),current_u[cm/s](46m),current_v[cm/s](46m),current_u[cm/s](50m),current_v[cm/s](50m),current_u[cm/s](54m),current_v[cm/s](54m),current_u[cm/s](58m),current_v[cm/s](58m),current_u[cm/s](62m),current_v[cm/s](62m),current_u[cm/s](66m),current_v[cm/s](66m),current_u[cm/s](70m),current_v[cm/s](70m),current_u[cm/s](74m),current_v[cm/s](74m),current_u[cm/s](78m),current_v[cm/s](78m),current_u[cm/s](82m),current_v[cm/s](82m),current_u[cm/s](86m),current_v[cm/s](86m),current_u[cm/s](90m),current_v[cm/s](90m)
2003-09-25 16:00,-23.23,-11.07,-26.95,-12.57,-19.77,-9.45,-22.01,-11.95,-18.23,-12.63,-15.05,-16.66,-16.00,-18.95,-17.67,-18.33,-19.31,-17.80,-16.21,-17.65,-13.94,-21.13,-11.32,-23.76,-8.06,-25.76,-7.24,-26.03,-9.19,-25.18,-10.92,-24.05,-13.11,-24.75,-11.53,-24.77,-8.80,-19.49,-6.68,-16.93,-7.39,-13.69
2003-09-25 17:00,-25.42,-18.07,-21.33,-19.70,-11.63,-15.88,-13.76,-21.38,-14.43,-24.22,-14.80,-25.70,-16.15,-25.40,-18.49,-25.31,-18.82,-28.56,-18.25,-28.69,-16.92,-30.58,-15.41,-31.36,-14.03,-32.07,-14.28,-31.94,-15.18,-28.77,-19.50,-27.10,-22.42,-25.82,-25.80,-23.44,-28.23,-22.74,-25.78,-21.54,-17.40,-19.50
2003-09-25 18:00,-21.02,-27.27,-21.43,-27.61,-12.08,-18.75,-13.68,-27.24,-14.63,-30.17,-16.21,-29.83,-16.46,-29.70,-16.37,-29.67,-15.73,-29.68,-14.66,-30.07,-14.05,-29.35,-15.02,-27.98,-16.00,-26.19,-16.40,-24.96,-15.03,-23.99,-13.48,-21.93,-13.95,-21.45,-12.37,-21.47,-9.92,-20.90,-7.46,-18.43,-4.37,-17.24
2003-09-25 19:00,-20.18,-23.96,-21.03,-21.29,-14.01,-14.01,-15.68,-22.94,-15.32,-25.03,-14.31,-24.92,-13.41,-24.11,-14.40,-24.32,-14.18,-24.35,-15.34,-23.67,-16.43,-24.86,-18.37,-25.37,-18.89,-22.39,-18.79,-19.10,-19.30,-19.79,-19.90,-21.56,-20.15,-23.73,-19.41,-25.39,-18.12,-23.83,-16.01,-23.89,-12.40,-21.69
2003-09-25 20:00,-8.89,-16.58,-11.19,-13.96,-10.08,-8.88,-14.51,-11.44,-14.89,-11.25,-14.64,-11.70,-14.07,-14.14,-13.96,-15.15,-14.88,-15.23,-15.51,-15.23,-15.15,-16.69,-14.23,-16.29,-13.69,-14.02,-14.79,-13.21,-15.04,-13.40,-15.65,-13.80,-13.01,-12.86,-10.19,-12.48,-6.06,-11.27,-2.58,-10.69,2.36,-10.69
2003-09-25 21:00,-4.72,-15.15,-6.69,-10.63,-5.42,-3.09,-10.27,-8.62,-13.15,-11.11,-14.28,-10.53,-15.25,-10.11,-15.87,-11.46,-16.94,-13.69,-17.39,-14.25,-19.01,-16.44,-19.43,-17.74,-18.53,-16.29,-17.30,-14.22,-13.72,-7.00,-11.16,-1.88,-8.83,-2.92,-9.46,-7.21,-9.95,-8.63,-6.67,-9.37,-2.41,-7.91
2003-09-25 22:00,4.10,-17.48,1.89,-9.89,-0.62,1.27,-2.32,-5.25,-5.75,-4.67,-8.62,-3.59,-10.37,-2.04,-10.29,-0.97,-10.49,0.96,-10.18,4.63,-8.34,5.11,-6.98,7.43,-5.44,9.18,-4.28,11.13,-4.50,11.16,-4.47,10.75,-2.68,10.06,-0.40,8.16,0.02,6.20,2.22,5.22,5.23,5.97
2003-09-25 23:00,-0.27,-5.75,-0.32,-0.31,-2.89,3.80,-2.85,4.66,-4.15,8.75,-6.46,11.38,-8.12,12.32,-9.27,13.94,-9.25,15.21,-8.25,17.00,-5.91,16.59,-2.79,16.32,0.33,15.11,3.76,13.58,5.05,13.78,6.03,15.67,6.81,17.18,8.70,19.14,11.03,21.04,13.03,23.36,15.55,22.69
2003-09-26 00:00,1.32,-10.39,-1.49,-7.19,-3.76,0.59,-1.01,-2.11,-0.69,2.51,-2.24,7.68,-0.97,10.29,-1.36,14.15,0.77,15.04,3.81,15.07,7.13,12.56,9.26,11.45,8.91,13.54,8.03,14.31,7.06,15.05,7.86,17.51,10.91,18.80,12.99,18.20,16.21,17.65,20.75,19.20,25.17,21.14
2003-09-26 01:00,-2.72,-0.03,-2.48,1.52,0.05,6.42,-1.52,6.76,-1.04,9.53,-1.45,12.45,-0.21,14.84,1.19,16.02,2.11,15.78,1.58,16.77,-4.20,19.44,-7.61,21.92,-6.45,23.55,-3.53,24.27,0.68,24.88,6.37,24.80,13.38,23.57,18.81,21.00,22.36,18.77,23.08,18.16,24.71,17.32
2003-09-26 02:00,-10.72,-4.89,-9.54,-3.67,-4.46,0.15,-8.64,-0.55,-6.47,0.88,-5.15,2.98,-4.74,5.00,-5.37,7.95,-6.44,7.71,-6.52,6.95,-5.49,5.39,-5.74,6.15,-6.53,8.63,-6.36,9.10,-4.49,9.48,-3.02,10.48,0.10,9.90,5.19,9.42,9.36,7.18,10.66,5.08,8.33,3.49
2003-09-26 03:00,-17.82,-10.29,-16.34,-8.98,-12.16,-3.66,-11.55,-7.56,-10.22,-4.83,-9.50,-3.13,-8.87,-3.46,-7.71,-4.13,-7.65,-4.64,-7.73,-3.41,-7.59,-6.82,-7.01,-6.33,-4.96,-4.20,-2.28,-2.72,-1.88,-3.33,-1.27,-4.92,0.89,-6.75,1.29,-7.67,0.22,-9.27,-2.19,-7.94,-6.64,-4.84
2003-09-26 04:00,-32.80,-10.03,-32.40,-13.26,-27.59,-12.88,-34.23,-17.73,-32.57,-20.66,-27.94,-20.34,-23.37,-18.88,-19.61,-19.16,-12.88,-17.54,-7.86,-15.83,-7.10,-17.58,-4.63,-19.74,-3.93,-22.24,-4.55,-20.97,-4.87,-18.97,-2.74,-18.40,-1.75,-19.55,-1.01,-20.89,-2.41,-21.44,-2.71,-22.80,-2.30,-20.78
2003-09-26 05:00,-26.74,-41.26,-26.43,-39.27,-17.71,-28.10,-25.18,-35.94,-25.65,-40.08,-20.47,-40.84,-18.34,-39.95,-15.73,-38.91,-12.44,-36.71,-11.28,-35.08,-10.40,-37.84,-8.63,-39.80,-9.51,-37.35,-12.29,-32.57,-15.41,-28.73,-16.49,-26.66,-17.36,-25.89,-19.34,-24.95,-21.76,-23.93,-23.85,-23.65,-22.20,-20.92
2003-09-26 06:00,-23.57,-28.81,-20.85,-28.79,-15.81,-23.82,-18.11,-32.43,-18.92,-35.83,-17.27,-38.04,-14.25,-38.96,-12.49,-39.87,-10.23,-39.36,-9.83,-39.65,-10.32,-41.07,-9.84,-42.91,-9.00,-41.28,-9.37,-38.46,-11.08,-36.06,-13.36,-33.85,-14.45,-32.73,-14.33,-30.80,-11.38,-27.87,-8.25,-25.51,-1.73,-20.60
2003-09-26 07:00,-21.85,-32.88,-22.99,-30.62,-16.00,-26.19,-23.76,-31.18,-26.69,-35.48,-26.03,-40.20,-23.90,-41.93,-22.53,-43.60,-19.07,-44.91,-15.48,-43.66,-14.92,-44.11,-16.66,-44.56,-18.43,-44.60,-18.45,-43.87,-18.70,-41.12,-17.30,-37.62,-13.69,-35.11,-9.16,-32.52,-5.78,-27.97,-1.82,-25.24,2.69,-23.28
2003-09-26 08:00,3.73,-31.14,-1.75,-29.10,-2.95,-22.04,-5.68,-22.69,-11.23,-23.73,-15.30,-23.14,-16.10,-21.61,-17.15,-21.62,-19.62,-22.41,-20.70,-24.64,-18.06,-26.01,-17.48,-27.82,-16.27,-29.32,-16.88,-30.04,-17.61,-30.38,-15.48,-29.49,-14.66,-29.44,-12.98,-27.12,-10.89,-24.78,-7.37,-21.66,-5.40,-16.31
2003-09-26 09:00,-6.87,-33.46,-8.81,-27.37,-3.58,-12.48,-9.76,-13.18,-16.04,-14.56,-18.62,-14.01,-20.76,-14.90,-21.65,-15.40,-21.70,-16.88,-21.46,-15.65,-21.14,-15.02,-18.17,-15.13,-14.34,-15.27,-9.24,-14.80,-4.47,-14.96,-0.88,-14.03,1.00,-12.70,0.84,-10.54,-1.51,-6.78,-3.93,-3.14,-5.13,-0.37
2003-09-26 10:00,-3.99,-19.11,-0.35,-14.38,2.64,-8.61,-1.12,-5.71,-5.72,-4.76,-9.98,-1.61,-12.00,1.11,-12.33,2.79,-9.71,2.15,-8.89,2.21,-10.42,1.09,-9.01,0.59,-6.24,3.78,-1.18,4.35,1.29,4.51,2.26,3.13,3.99,2.95,3.93,3.14,4.56,5.13,3.68,5.90,2.57,7.75
2003-09-26 11:00,0.78,-12.66,3.99,-9.22,1.47,-3.94,-3.44,0.27,-5.87,3.59,-7.37,6.99,-8.96,9.01,-8.86,9.35,-8.28,10.17,-6.92,9.86,-5.21,10.09,-3.36,9.22,0.40,8.31,8.39,9.91,12.95,13.05,15.04,13.40,15.02,16.12,11.33,16.83,8.91,15.85,5.12,16.22,4.00,15.13
2003-09-26 12:00,-1.67,5.24,-3.60,9.66,-5.48,10.95,-5.10,18.32,-5.21,21.64,-4.84,23.44,-3.71,22.85,-1.93,21.53,-1.27,21.11,-0.55,20.50,-0.88,19.56,0.89,19.60,3.37,18.08,6.25,15.95,8.96,15.03,10.91,16.49,12.81,19.09,16.92,23.97,18.46,27.39,20.76,29.70,21.05,29.79
2003-09-26 13:00,-1.28,3.37,5.66,2.64,4.82,3.64,6.06,8.65,5.98,16.81,5.67,22.06,4.35,22.27,3.55,21.81,3.01,21.53,1.89,20.75,1.37,20.06,1.21,19.28,2.60,22.13,5.23,24.44,8.26,26.14,10.81,27.69,11.88,29.60,12.91,28.99,13.12,28.32,12.34,26.81,9.15,24.32
2003-09-26 14:00,-4.83,-6.58,-3.81,-5.83,-3.64,-5.04,-1.98,-3.67,-2.62,0.00,-2.20,5.91,-3.00,12.06,-4.01,12.58,-3.92,11.66,-2.72,12.15,-3.41,12.35,-3.69,12.89,-2.40,14.14,0.60,16.88,1.67,16.49,2.28,14.58,2.08,16.20,3.45,16.84,6.96,17.02,8.15,15.93,5.59,13.43
2003-09-26 15:00,-3.79,-25.98,-4.72,-19.45,-3.03,-11.57,-2.27,-9.01,-5.51,-5.43,-5.49,-6.16,-5.73,-7.39,-5.42,-7.71,-4.43,-7.50,-4.81,-6.99,-4.57,-6.07,-5.29,-5.15,-4.66,-3.48,-3.84,-1.12,-4.30,-0.01,-4.31,-0.32,-3.33,-0.75,-2.26,-0.82,-2.23,-1.24,-3.74,-3.08,-5.20,-3.12
2003-09-26 16:00,-34.36,-26.90,-27.11,-29.21,-14.92,-23.33,-14.77,-26.43,-13.02,-20.73,-11.12,-15.82,-11.39,-14.65,-11.72,-15.59,-12.73,-15.39,-11.77,-14.77,-11.36,-14.74,-11.32,-14.21,-12.41,-12.45,-13.23,-10.51,-12.55,-6.41,-11.43,-3.64,-11.81,-3.13,-12.01,-4.14,-12.86,-6.41,-13.73,-7.63,-14.64,-9.39
2003-09-26 17:00,-34.43,-41.82,-34.25,-40.40,-23.73,-31.59,-24.03,-42.18,-18.35,-35.97,-15.72,-30.72,-15.02,-30.29,-12.92,-29.94,-10.17,-29.69,-8.54,-28.54,-9.83,-28.11,-9.58,-27.92,-9.10,-27.46,-9.39,-26.19,-10.49,-23.07,-11.64,-19.14,-13.19,-16.59,-13.10,-16.87,-12.46,-16.56,-12.10,-18.34,-12.05,-21.15
2003-09-26 18:00,-29.29,-38.19,-24.86,-37.94,-14.52,-26.56,-17.50,-36.01,-17.85,-36.23,-16.94,-34.47,-17.49,-33.07,-18.49,-32.23,-19.20,-31.31,-18.47,-30.97,-16.75,-30.11,-15.96,-29.64,-15.35,-29.24,-15.37,-28.19,-13.71,-27.14,-13.47,-25.91,-13.78,-22.97,-13.97,-23.03,-12.66,-26.81,-9.23,-30.33,-7.52,-30.10
2003-09-26 19:00,-24.40,-41.36,-20.87,-39.92,-12.42,-27.89,-14.12,-41.34,-15.08,-41.96,-16.82,-40.10,-17.47,-38.73,-18.44,-35.68,-18.96,-34.38,-20.15,-33.60,-20.96,-32.39,-20.86,-32.36,-22.63,-32.08,-27.03,-32.12,-30.39,-28.47,-28.87,-23.37,-25.87,-18.95,-24.22,-15.90,-23.19,-15.16,-24.29,-14.67,-21.88,-14.00
2003-09-26 20:00,-24.54,-42.87,-23.23,-41.72,-18.35,-28.72,-20.02,-35.98,-19.86,-37.81,-18.47,-37.58,-18.09,-38.09,-17.63,-39.20,-17.43,-38.19,-16.12,-35.05,-16.20,-33.50,-18.33,-27.78,-19.98,-23.26,-20.72,-17.31,-18.57,-12.21,-16.82,-9.45,-15.82,-9.66,-13.64,-10.22,-11.75,-10.88,-10.72,-12.13,-9.95,-13.24
2003-09-26 21:00,-24.06,-18.05,-25.29,-20.44,-22.31,-19.91,-20.11,-25.82,-19.22,-27.95,-18.53,-26.16,-18.35,-24.42,-18.01,-24.52,-17.51,-25.41,-15.26,-24.59,-12.63,-24.59,-10.37,-20.83,-13.07,-14.97,-15.41,-12.25,-13.64,-10.22,-9.11,-6.99,-5.13,-3.00,-3.28,-1.89,-1.19,-1.85,-1.54,-3.74,-1.09,-6.12
2003-09-26 22:00,-15.83,-1.37,-15.18,0.20,-15.01,-1.32,-15.47,-7.45,-13.04,-10.14,-12.42,-11.09,-10.89,-12.60,-10.39,-13.18,-11.49,-12.69,-12.63,-10.43,-11.11,-7.63,-8.51,-5.23,-5.70,-0.87,-1.95,3.16,-1.12,5.83,-0.71,8.49,-0.73,7.22,-0.01,6.29,0.30,5.97,1.83,6.78,4.01,9.15
2003-09-26 23:00,-7.92,-1.16,-7.89,-1.25,-11.27,-0.55,-14.04,-4.37,-12.41,-8.15,-9.34,-10.22,-10.23,-10.39,-13.51,-9.66,-14.63,-6.45,-12.95,-3.18,-12.83,0.74,-9.56,4.30,-4.54,6.01,-1.00,7.76,2.34,9.14,5.06,9.80,7.07,10.44,8.71,10.23,10.39,10.55,10.94,11.78,9.42,15.91
2003-09-27 00:00,-3.18,20.19,-8.19,19.12,-10.95,16.24,-11.30,13.40,-10.08,12.22,-7.96,9.85,-8.27,8.17,-9.90,9.34,-8.67,11.72,-7.65,12.47,-6.52,13.56,-6.62,16.15,-2.90,17.34,1.83,18.32,5.42,19.57,10.61,20.07,12.50,19.41,12.53,19.63,14.32,20.62,18.57,23.76,19.69,24.85
2003-09-27 01:00,12.82,19.72,7.59,21.31,0.69,20.58,-4.57,20.27,-8.52,20.48,-8.61,21.08,-9.26,23.81,-11.57,26.12,-11.53,24.66,-10.92,23.07,-10.21,21.83,-8.64,20.55,-8.25,21.93,-8.16,21.65,-5.09,19.26,-1.95,17.33,0.73,16.50,2.94,16.15,5.27,16.06,10.05,18.21,12.50,19.41
2003-09-27 02:00,4.23,6.49,-0.96,6.31,-5.27,8.29,-7.84,11.77,-9.99,16.55,-12.41,20.18,-12.11,21.22,-12.33,21.58,-11.84,20.05,-9.63,18.03,-5.24,15.12,-2.85,14.21,-1.91,11.25,-1.88,8.53,-1.87,7.17,0.97,6.19,3.46,5.93,7.74,6.66,13.27,8.43,16.00,9.08,14.82,8.18
2003-09-27 03:00,2.36,-10.06,-3.74,-5.39,-7.34,-2.34,-11.90,1.46,-15.11,4.95,-16.95,7.09,-17.97,8.97,-16.70,9.58,-15.34,9.60,-15.15,9.03,-14.42,7.37,-13.43,5.59,-12.27,4.91,-11.13,4.64,-9.00,3.22,-5.17,-0.91,-3.45,-2.67,-2.62,-1.67,-0.72,-2.01,1.10,-3.11,2.18,-2.24
2003-09-27 04:00,-10.06,-21.78,-14.22,-13.66,-16.97,-8.34,-19.51,-6.95,-17.66,-7.83,-17.93,-7.29,-19.27,-5.72,-19.55,-5.18,-18.89,-5.28,-16.56,-6.33,-14.04,-8.98,-12.39,-11.50,-10.25,-14.28,-10.83,-15.42,-10.56,-16.27,-9.72,-17.58,-8.34,-18.29,-7.05,-19.04,-5.42,-20.20,-3.61,-21.30,-1.67,-20.79
2003-09-27 05:00,-22.43,-31.39,-21.61,-27.04,-18.44,-21.20,-22.31,-19.91,-22.27,-21.37,-19.52,-21.75,-18.35,-21.48,-19.47,-20.27,-22.54,-18.52,-24.16,-16.72,-25.94,-17.40,-27.14,-16.62,-26.65,-18.46,-24.81,-19.97,-23.69,-21.19,-22.21,-21.87,-21.81,-22.48,-22.07,-22.98,-23.14,-22.59,-20.88,-21.76,-18.36,-20.44
2003-09-27 06:00,-23.08,-44.51,-24.03,-39.56,-18.71,-31.88,-18.54,-34.03,-18.90,-34.25,-18.18,-34.86,-16.13,-35.36,-16.51,-35.48,-17.90,-33.09,-19.85,-30.25,-22.02,-28.74,-24.30,-27.16,-27.01,-26.24,-28.01,-25.08,-28.98,-24.34,-29.42,-24.28,-28.92,-24.85,-29.27,-25.07,-28.47,-26.28,-28.98,-26.97,-27.38,-25.73
2003-09-27 07:00,-17.80,-51.53,-14.86,-44.62,-10.00,-28.58,-14.75,-36.39,-17.40,-40.91,-18.91,-39.82,-19.83,-37.59,-20.34,-35.97,-20.55,-33.00,-20.60,-29.23,-21.67,-26.53,-23.68,-25.17,-23.09,-24.04,-22.31,-22.54,-22.23,-21.46,-22.81,-19.65,-22.86,-18.51,-22.27,-16.75,-22.17,-16.72,-21.64,-17.39,-21.42,-17.11
2003-09-27 08:00,-25.31,-38.81,-20.82,-38.43,-14.61,-30.58,-16.65,-29.76,-18.70,-29.26,-19.09,-27.39,-21.99,-29.47,-22.07,-30.22,-21.69,-30.10,-20.75,-28.44,-21.69,-25.80,-22.18,-24.59,-23.27,-23.47,-24.37,-22.35,-25.04,-20.89,-24.96,-19.81,-24.73,-18.58,-22.16,-18.39,-18.88,-16.19,-15.82,-16.90,-13.17,-17.63
2003-09-27 09:00,-18.58,-27.01,-20.26,-22.72,-17.92,-15.57,-22.49,-19.34,-25.22,-19.68,-25.84,-19.04,-25.47,-19.87,-24.08,-19.63,-23.30,-18.44,-22.70,-16.05,-22.67,-16.14,-23.69,-14.58,-23.64,-13.09,-21.91,-11.60,-18.14,-8.61,-16.44,-6.71,-16.08,-6.17,-15.96,-6.24,-13.81,-6.08,-12.16,-5.66,-10.83,-7.86
2003-09-27 10:00,-17.03,-15.40,-14.75,-12.99,-11.20,-9.65,-10.31,-7.48,-12.38,-7.93,-13.16,-7.45,-13.02,-6.56,-13.95,-4.97,-14.56,-3.06,-14.28,-0.98,-13.89,-0.54,-14.29,-1.93,-14.15,-1.36,-13.75,0.34,-9.96,2.60,-6.47,3.50,-4.63,3.98,-5.11,3.52,-4.26,3.16,-2.41,1.96,0.42,0.34
2003-09-27 11:00,-20.37,-7.22,-15.53,-9.25,-10.70,-7.92,-10.33,-6.44,-10.63,-4.85,-11.72,-3.42,-11.43,-1.02,-9.67,0.70,-9.08,2.15,-7.19,4.11,-8.78,5.49,-8.62,5.97,-6.28,8.18,-4.04,10.36,-0.97,12.60,0.79,14.00,3.99,14.49,9.61,15.97,14.11,16.67,12.74,16.02,10.91,13.86
2003-09-27 12:00,-17.25,5.73,-13.56,5.65,-11.90,3.76,-14.82,5.35,-13.95,8.88,-11.49,11.03,-8.18,10.51,-8.07,11.18,-8.61,13.84,-7.29,15.31,-5.08,17.27,-3.12,17.37,-1.80,16.53,1.90,16.77,4.47,14.65,7.31,14.29,14.18,15.12,23.09,16.48,26.84,17.89,26.97,20.77,26.14,22.39
2003-09-27 13:00,-17.40,16.08,-15.61,15.39,-12.60,13.51,-16.03,14.73,-17.68,14.31,-17.54,12.57,-15.77,10.30,-15.63,9.19,-15.01,10.54,-9.67,12.24,-6.69,13.09,-4.23,14.60,-3.55,13.46,-2.74,12.56,-0.35,11.96,2.26,10.69,6.42,9.81,11.98,8.85,17.39,6.69,18.64,5.41,18.01,5.74
2003-09-27 14:00,-10.04,24.93,-8.16,21.33,-5.87,15.13,-7.99,17.50,-9.95,19.71,-13.07,20.92,-14.84,23.19,-14.22,24.23,-13.50,24.25,-11.14,22.79,-11.68,20.21,-11.95,16.76,-10.54,13.33,-5.08,10.03,-0.37,8.07,2.63,7.56,7.50,7.74,12.86,8.40,16.38,6.58,15.85,2.95,13.60,-0.18
2003-09-27 15:00,-19.20,21.38,-16.51,19.20,-11.81,15.65,-11.28,14.67,-10.46,12.73,-9.29,12.36,-7.99,12.88,-8.12,12.32,-9.72,13.06,-10.45,13.36,-12.14,14.39,-13.29,13.40,-12.78,9.15,-10.40,5.29,-6.20,2.33,-3.97,1.25,-3.44,0.58,-2.42,-1.30,-1.31,-1.15,0.01,-1.99,4.16,-3.50
2003-09-27 16:00,-12.40,-2.90,-9.37,-2.88,-7.17,-1.55,-8.79,2.24,-12.11,5.06,-13.37,5.40,-14.68,6.55,-15.18,6.81,-15.72,6.85,-16.28,5.63,-16.70,4.33,-17.98,3.72,-17.48,2.83,-17.44,1.06,-15.97,-2.25,-11.02,-5.92,-7.90,-9.13,-4.60,-10.60,-3.60,-11.75,-3.36,-12.51,-3.91,-13.42
2003-09-27 17:00,-23.63,-14.77,-25.67,-11.33,-24.84,-8.02,-24.35,-7.23,-23.25,-5.41,-24.53,-6.03,-24.37,-6.19,-24.37,-6.19,-23.55,-6.14,-23.38,-5.35,-24.11,-5.37,-23.45,-6.11,-23.40,-6.61,-23.11,-8.83,-22.81,-9.78,-23.19,-10.22,-24.14,-12.20,-23.61,-12.87,-22.79,-15.76,-22.35,-15.51,-22.46,-17.13
2003-09-27 18:00,-22.01,-26.11,-21.78,-22.89,-19.85,-17.76,-20.96,-20.85,-21.56,-22.93,-22.07,-23.61,-22.29,-23.58,-22.74,-21.52,-23.37,-20.88,-24.52,-19.88,-25.50,-19.46,-26.62,-18.56,-27.06,-18.17,-26.68,-17.73,-26.45,-17.77,-25.87,-18.63,-26.78,-21.02,-27.55,-24.21,-26.81,-27.85,-24.22,-28.39,-20.57,-27.02
2003-09-27 19:00,-13.16,-35.78,-16.02,-31.76,-14.28,-22.39,-17.63,-27.03,-19.17,-26.78,-19.67,-23.27,-20.24,-21.14,-20.71,-20.98,-22.51,-20.92,-22.31,-19.91,-22.46,-19.75,-21.79,-18.59,-21.99,-16.97,-22.06,-17.73,-23.02,-18.67,-24.15,-20.39,-23.06,-23.82,-23.63,-26.31,-24.44,-28.04,-22.77,-28.35,-18.49,-27.62
2003-09-27 20:00,-8.17,-31.36,-10.69,-26.07,-10.54,-19.31,-14.04,-21.48,-17.25,-19.98,-19.25,-17.99,-18.88,-16.19,-18.17,-15.13,-17.26,-15.68,-16.30,-15.06,-17.95,-17.79,-20.27,-21.05,-20.67,-23.06,-21.84,-25.33,-23.09,-26.67,-24.34,-27.70,-24.01,-26.75,-21.88,-25.55,-21.06,-25.81,-18.14,-25.09,-14.05,-22.11
2003-09-27 21:00,-8.73,-35.53,-10.41,-28.61,-10.75,-20.95,-13.37,-20.63,-14.20,-18.69,-13.60,-16.30,-13.88,-16.39,-14.14,-16.89,-13.57,-19.33,-12.38,-19.79,-13.37,-20.63,-15.50,-21.20,-16.83,-21.94,-17.40,-21.49,-17.71,-21.17,-17.74,-21.40,-16.89,-21.75,-12.68,-18.84,-6.75,-15.06,-3.18,-13.40,-1.21,-14.97
2003-09-27 22:00,-5.72,-20.92,-8.54,-16.36,-9.92,-11.35,-11.42,-9.94,-12.87,-7.35,-12.87,-6.72,-13.45,-7.85,-14.76,-9.01,-16.93,-10.12,-17.65,-7.20,-18.70,-9.84,-17.53,-12.19,-15.19,-12.61,-11.43,-10.57,-7.08,-6.45,-3.66,-2.01,-2.71,-1.70,-2.47,-2.78,-1.21,-3.11,0.32,-2.00,-0.41,-2.65
2003-09-27 23:00,-1.35,-8.93,-0.41,-2.33,0.48,3.09,0.84,8.56,-1.34,8.49,-3.23,6.53,-5.33,5.86,-6.76,5.09,-8.95,4.39,-10.87,7.77,-10.49,8.20,-5.79,6.66,-2.54,3.70,-1.26,2.64,1.00,3.78,3.97,4.00,5.83,5.43,7.86,6.28,9.71,7.08,10.55,8.71,12.45,11.00
2003-09-28 00:00,3.69,1.28,5.14,6.26,4.22,10.79,5.55,15.20,5.56,16.15,4.24,16.99,2.98,17.01,1.63,17.94,0.65,20.04,-0.50,21.67,-0.16,23.25,-0.04,23.18,1.50,21.99,5.09,18.94,8.36,17.57,11.60,16.29,13.06,16.33,15.26,15.67,17.77,16.37,21.21,18.09,25.92,22.74
2003-09-28 01:00,-4.46,9.07,-2.39,12.78,-0.72,15.09,2.33,20.68,4.29,25.09,6.29,26.04,6.35,25.22,7.98,24.37,9.06,24.61,10.37,23.77,12.43,23.58,15.36,22.94,17.06,22.23,17.52,21.11,19.26,19.26,19.83,16.81,21.37,16.25,23.63,16.76,24.82,18.61,28.57,22.01,30.03,27.62
2003-09-28 02:00,-12.15,6.84,-9.57,7.97,-5.57,11.24,-3.10,14.34,-2.05,16.66,-0.80,16.01,1.18,14.75,2.91,14.57,3.45,14.53,4.14,14.02,4.88,14.99,6.50,15.19,8.99,14.93,10.24,13.97,11.42,14.55,12.73,15.39,14.10,13.73,17.54,11.15,22.14,9.89,26.45,10.21,27.52,12.44
2003-09-28 03:00,-6.38,12.13,-5.09,12.34,-4.70,12.78,-4.96,14.27,-6.39,16.44,-7.34,19.07,-7.20,19.96,-10.14,19.96,-10.56,18.99,-8.41,18.83,-7.03,18.44,-5.20,17.65,-3.33,15.73,-1.10,14.97,0.96,14.79,3.07,14.73,6.81,12.88,11.37,10.76,12.86,8.72,12.10,5.85,11.88,4.21
2003-09-28 04:00,-17.26,10.03,-17.34,6.65,-14.15,5.88,-10.53,2.73,-7.65,0.61,-6.61,-0.32,-6.09,1.31,-6.75,3.73,-6.98,5.12,-6.52,6.95,-6.41,5.62,-4.52,2.65,-3.34,0.93,-3.63,0.52,-4.17,0.25,-3.62,-0.84,-1.80,-1.94,0.02,-3.04,1.88,-3.60,3.36,-6.28,1.75,-8.47
2003-09-28 05:00,-22.52,-2.77,-22.61,-2.48,-19.36,-2.81,-16.48,-7.56,-14.31,-10.44,-12.75,-12.04,-14.41,-10.78,-16.02,-8.36,-17.75,-5.23,-18.42,-3.77,-17.79,-5.77,-16.69,-8.89,-15.23,-10.83,-13.97,-13.48,-12.21,-16.69,-10.77,-18.23,-10.12,-18.97,-9.35,-20.40,-10.76,-21.90,-10.84,-27.59,-10.36,-30.06
2003-09-28 06:00,-28.51,-10.34,-26.23,-10.56,-19.06,-8.38,-22.14,-9.89,-22.15,-12.83,-18.72,-16.04,-16.04,-16.86,-15.18,-16.59,-15.06,-17.29,-13.60,-16.93,-12.32,-20.30,-9.56,-24.03,-9.17,-28.21,-8.57,-33.06,-8.84,-36.50,-8.06,-39.93,-6.38,-41.91,-5.37,-41.80,-5.49,-41.74,-6.54,-42.07,-7.10,-38.99
2003-09-28 07:00,-28.04,-17.75,-25.33,-18.99,-16.97,-13.59,-21.68,-15.30,-23.32,-17.40,-21.65,-20.65,-19.72,-22.76,-19.03,-25.58,-15.74,-27.37,-13.86,-26.98,-14.87,-26.78,-14.30,-28.90,-13.17,-31.48,-11.72,-34.69,-11.94,-38.96,-12.38,-41.52,-13.06,-42.36,-12.15,-43.23,-13.09,-42.27,-12.17,-39.88,-8.66,-35.40
2003-09-28 08:00,-30.44,-20.09,-27.86,-21.26,-17.02,-16.76,-22.24,-21.78,-25.03,-24.87,-24.81,-25.22,-24.83,-26.17,-23.04,-27.18,-18.48,-28.98,-14.89,-30.04,-13.93,-32.04,-10.94,-35.50,-8.82,-37.86,-9.78,-38.48,-12.51,-39.46,-15.35,-38.79,-15.86,-36.85,-16.09,-34.83,-17.51,-32.66,-17.73,-31.99,-15.93,-30.05
2003-09-28 09:00,-14.28,-22.71,-13.77,-22.02,-9.70,-18.31,-13.72,-20.85,-16.71,-22.01,-17.43,-24.02,-16.97,-27.45,-16.69,-29.98,-15.23,-32.24,-11.73,-33.02,-10.89,-36.32,-12.53,-38.10,-14.71,-38.48,-14.71,-38.48,-13.98,-37.83,-14.99,-35.32,-14.98,-34.37,-15.10,-34.30,-13.35,-30.91,-9.86,-27.70,-8.56,-25.19
2003-09-28 10:00,-13.73,-21.48,-15.35,-20.00,-17.15,-14.70,-15.63,-21.77,-16.43,-22.55,-16.94,-22.61,-16.71,-22.33,-16.25,-23.12,-14.41,-24.95,-12.18,-26.66,-11.81,-29.79,-11.71,-31.44,-12.18,-31.27,-12.24,-30.77,-9.52,-28.11,-5.78,-25.35,-2.84,-23.36,-0.70,-21.84,0.07,-20.65,2.55,-20.18,4.96,-19.20
2003-09-28 11:00,-4.00,-10.83,-3.91,-10.80,-5.79,-2.58,-5.04,-10.53,-4.13,-10.76,-3.62,-10.70,-2.83,-12.87,-2.34,-14.07,-2.73,-12.52,-3.34,-10.93,-3.86,-12.25,-3.45,-14.22,-2.43,-13.79,-2.16,-12.65,-2.37,-11.67,-1.83,-11.39,2.41,-9.20,6.28,-5.87,8.70,-4.58,9.22,-5.88,11.48,-7.05
2003-09-28 12:00,-14.14,11.45,-10.50,7.26,-4.31,4.30,-8.02,0.80,-9.28,1.45,-9.35,3.00,-8.90,3.88,-9.11,4.87,-9.47,3.70,-10.35,3.84,-10.48,3.59,-9.76,2.98,-9.79,3.70,-8.95,4.39,-6.65,6.38,-0.61,8.83,6.73,11.17,8.71,10.54,7.27,8.82,4.59,7.34,5.21,6.38
2003-09-28 13:00,-4.16,19.98,-2.23,17.87,-1.78,10.87,0.27,6.38,1.37,5.26,3.43,5.71,3.19,6.79,1.53,8.36,1.02,7.67,0.07,9.68,-0.05,8.38,-0.38,9.11,0.34,11.13,1.77,11.90,4.06,10.64,6.63,8.83,10.74,8.77,12.08,7.21,10.69,6.97,11.11,5.32,11.17,5.13
2003-09-28 14:00,-7.65,28.31,-5.53,26.26,-2.26,15.34,-3.99,20.77,-2.85,18.82,0.29,14.89,1.90,12.15,2.15,11.70,2.14,13.06,-0.53,14.84,-1.94,15.97,-1.89,15.14,-1.89,15.14,-2.18,14.73,1.34,14.91,4.99,13.66,7.79,12.77,7.92,12.70,6.99,11.99,6.48,11.30,9.19,8.70
2003-09-28 15:00,-1.71,28.42,-1.92,24.16,-5.28,11.96,-2.55,17.55,-2.32,15.84,-0.63,11.87,0.25,9.10,2.00,7.88,5.58,3.56,2.21,6.90,1.53,10.04,0.70,11.98,1.43,12.31,0.70,12.29,0.20,12.55,0.52,12.86,2.70,10.31,4.71,9.58,6.41,11.17,8.38,11.59,11.46,10.16
2003-09-28 16:00,-6.47,13.05,-5.48,6.34,-3.04,-0.66,-7.84,-0.09,-10.45,-3.43,-10.19,-5.24,-9.90,-5.15,-9.02,-5.60,-8.33,-5.80,-8.54,-4.82,-7.43,-2.05,-6.68,-0.76,-7.09,-0.16,-7.43,-0.06,-5.02,-2.02,-1.59,-2.92,2.60,-3.89,3.30,-6.40,4.43,-4.68,6.15,-6.12,7.34,-7.21
2003-09-28 17:00,0.82,-2.57,0.22,-6.96,-2.76,-7.49,-2.40,-11.26,-6.47,-12.98,-6.66,-13.04,-6.13,-11.40,-6.44,-8.77,-5.60,-7.14,-7.83,-3.75,-8.57,-4.72,-9.19,-5.76,-8.34,-6.12,-8.05,-6.03,-6.17,-7.00,-3.77,-7.92,-2.12,-9.81,-2.14,-10.76,-3.20,-12.04,-3.66,-11.24,-4.77,-8.76
2003-09-28 18:00,-6.18,-22.12,-6.02,-24.27,-6.86,-21.29,-5.21,-30.42,-8.06,-33.00,-12.09,-34.18,-14.75,-31.78,-15.23,-29.94,-12.68,-28.07,-10.87,-25.19,-11.07,-23.89,-13.21,-22.78,-15.84,-21.10,-17.41,-20.13,-15.24,-19.02,-12.45,-20.55,-9.99,-21.02,-9.75,-22.10,-10.87,-20.89,-12.13,-20.24,-13.62,-17.88
2003-09-28 19:00,-16.26,-38.56,-15.13,-39.14,-9.84,-29.06,-15.09,-40.60,-17.22,-43.48,-18.71,-41.75,-22.07,-40.09,-23.56,-37.73,-19.15,-34.75,-17.80,-32.75,-17.57,-32.15,-17.03,-32.19,-16.78,-29.69,-16.26,-26.38,-15.83,-25.09,-15.33,-25.35,-14.62,-26.91,-14.84,-28.87,-14.99,-30.38,-14.34,-31.75,-10.85,-31.16
2003-09-28 20:00,-20.23,-41.60,-19.16,-40.00,-10.98,-24.49,-19.27,-36.37,-23.35,-38.40,-22.71,-36.10,-19.72,-34.62,-15.68,-35.12,-11.76,-34.92,-10.46,-34.71,-10.35,-36.04,-10.20,-36.83,-10.58,-36.64,-11.06,-37.42,-12.75,-38.38,-14.58,-38.23,-15.15,-37.78,-14.35,-37.63,-13.82,-37.99,-13.09,-37.65,-12.77,-35.34
2003-09-28 21:00,-24.21,-24.82,-21.64,-24.32,-13.63,-16.83,-21.48,-24.48,-24.06,-27.92,-25.38,-29.39,-28.13,-31.63,-31.00,-33.80,-31.55,-34.40,-34.40,-34.99,-36.00,-36.55,-35.41,-36.78,-33.69,-33.93,-31.44,-30.79,-30.30,-28.44,-30.27,-26.22,-31.30,-25.29,-31.78,-23.77,-29.10,-23.65,-25.12,-21.96,-16.10,-16.99
2003-09-28 22:00,-13.31,-35.31,-10.81,-30.63,-6.41,-15.47,-13.31,-25.76,-20.40,-30.85,-23.08,-32.65,-23.63,-33.87,-21.55,-34.15,-18.14,-32.02,-15.88,-28.88,-15.39,-27.78,-15.51,-24.46,-15.83,-20.47,-16.24,-19.87,-15.92,-20.19,-13.95,-19.45,-13.47,-18.67,-11.49,-16.99,-11.65,-15.47,-10.54,-14.69,-10.02,-13.69
2003-09-28 23:00,-17.95,-22.40,-16.31,-18.00,-14.27,-10.21,-22.45,-14.18,-25.12,-17.34,-24.29,-19.28,-21.13,-23.94,-19.15,-24.89,-16.55,-24.48,-13.83,-22.14,-11.40,-19.90,-8.35,-16.62,-5.28,-13.75,-3.45,-12.22,-2.15,-12.02,-0.99,-12.70,-0.47,-11.38,-0.02,-8.82,-0.04,-5.47,0.26,-2.12,1.83,2.16